User: anonymous   Login
Location: Nairn
(57.5833°N, 3.8667°W)
Time: 00:57:47
(UTC+00:00)
Language:

Cosmos 2151 Rocket - Orbit

View from above orbital plane
View from above orbital plane
View from above satellite
View from above satellite

Ground track
Ground track

The orbit data is extracted from the following two-line orbital elements,

1 21423U 91042B   21340.41229514  .00000125  00000-0  13593-4 0  9999
2 21423  82.4953 235.0228 0016309 303.0756  56.8891 14.79857543623078
Epoch (UTC): 06 December 2021 09:53:42
Eccentricity: 0.0016309
inclination: 82.4953°
perigee height: 618 km
apogee height: 641 km
right ascension of ascending node: 235.0228°
argument of perigee: 303.0756°
revolutions per day: 14.79857543
mean anomaly at epoch: 56.8891°
orbit number at epoch: 62307

The dashed part of the orbit path shows where the satellite is in the earth's shadow,  

DLR